Time,TemperatureF,DewpointF,PressureIn,WindDirection,WindDirectionDegrees,WindSpeedMPH,WindSpeedGustMPH,Humidity,HourlyPrecipIn,Conditions,Clouds,dailyrainin,SoftwareType,DateUTC
2013-12-24 00:03:00,14.0,14.0,27.13,SSE,168,10.0,11.0,97,0.00,,,-99.99,,2013-12-24 06:03:00,
2013-12-24 00:13:00,14.0,12.0,27.12,South,171,11.0,11.0,96,0.00,,,-99.99,,2013-12-24 06:13:00,
2013-12-24 00:23:00,14.0,12.0,27.12,South,171,11.0,12.0,96,0.00,,,-99.99,,2013-12-24 06:23:00,
2013-12-24 00:38:00,14.0,12.0,27.12,South,171,9.0,9.0,96,0.00,,,-99.99,,2013-12-24 06:38:00,
2013-12-24 00:43:00,14.0,12.0,27.11,SSE,165,9.0,9.0,96,0.00,,,-99.99,,2013-12-24 06:43:00,
2013-12-24 00:53:00,14.0,12.0,27.11,SSE,164,10.0,11.0,96,0.00,,,-99.99,,2013-12-24 06:53:00,
2013-12-24 01:33:00,15.0,14.0,27.09,SSE,164,11.0,12.0,96,0.00,,,-99.99,,2013-12-24 07:33:00,
2013-12-24 02:28:00,11.0,10.0,27.07,SSE,159,8.0,9.0,96,0.00,,,-99.99,,2013-12-24 08:28:00,
2013-12-24 02:38:00,11.0,10.0,27.07,SSE,155,7.0,9.0,96,0.00,,,-99.99,,2013-12-24 08:38:00,
2013-12-24 02:43:00,11.0,10.0,27.07,SSE,154,8.0,8.0,97,0.00,,,-99.99,,2013-12-24 08:43:00,
2013-12-24 03:08:00,12.0,12.0,27.05,South,169,9.0,9.0,97,0.00,,,-99.99,,2013-12-24 09:08:00,
2013-12-24 03:18:00,12.0,10.0,27.05,South,169,7.0,8.0,96,0.00,,,-99.99,,2013-12-24 09:18:00,
2013-12-24 03:23:00,12.0,10.0,27.05,SSE,154,7.0,8.0,96,0.00,,,-99.99,,2013-12-24 09:23:00,
2013-12-24 03:33:00,11.0,10.0,27.04,SSE,157,8.0,8.0,96,0.00,,,-99.99,,2013-12-24 09:33:00,
2013-12-24 03:38:00,10.0,9.0,27.04,SSE,154,7.0,8.0,96,0.00,,,-99.99,,2013-12-24 09:38:00,
2013-12-24 03:43:00,10.0,9.0,27.04,SSE,158,8.0,8.0,96,0.00,,,-99.99,,2013-12-24 09:43:00,
2013-12-24 03:58:00,10.0,9.0,27.04,SSE,162,5.0,6.0,97,0.00,,,-99.99,,2013-12-24 09:58:00,
2013-12-24 04:08:00,10.0,9.0,27.03,SSE,158,6.0,7.0,97,0.00,,,-99.99,,2013-12-24 10:08:00,
2013-12-24 04:13:00,10.0,9.0,27.03,SE,140,6.0,6.0,97,0.00,,,-99.99,,2013-12-24 10:13:00,
2013-12-24 04:23:00,11.0,10.0,27.03,SE,142,7.0,8.0,97,0.00,,,-99.99,,2013-12-24 10:23:00,
2013-12-24 04:28:00,11.0,10.0,27.03,SE,145,8.0,8.0,97,0.00,,,-99.99,,2013-12-24 10:28:00,
2013-12-24 04:38:00,12.0,10.0,27.02,SSE,148,8.0,9.0,96,0.00,,,-99.99,,2013-12-24 10:38:00,
2013-12-24 04:43:00,12.0,10.0,27.03,SE,144,9.0,9.0,96,0.00,,,-99.99,,2013-12-24 10:43:00,
2013-12-24 04:48:00,12.0,12.0,27.02,SSE,154,6.0,7.0,97,0.00,,,-99.99,,2013-12-24 10:48:00,
2013-12-24 04:53:00,12.0,12.0,27.02,SE,141,6.0,6.0,97,0.00,,,-99.99,,2013-12-24 10:53:00,
2013-12-24 05:03:00,11.0,10.0,27.00,ESE,123,7.0,7.0,97,0.00,,,-99.99,,2013-12-24 11:03:00,
2013-12-24 05:13:00,12.0,12.0,27.01,SE,135,7.0,8.0,97,0.00,,,-99.99,,2013-12-24 11:13:00,
2013-12-24 05:18:00,12.0,12.0,27.01,SE,140,8.0,9.0,97,0.00,,,-99.99,,2013-12-24 11:18:00,
2013-12-24 05:23:00,12.0,12.0,27.01,SE,140,8.0,8.0,97,0.00,,,-99.99,,2013-12-24 11:23:00,
2013-12-24 05:28:00,12.0,12.0,27.01,SSE,162,8.0,9.0,97,0.00,,,-99.99,,2013-12-24 11:28:00,
2013-12-24 05:33:00,12.0,12.0,27.00,SSE,154,9.0,10.0,97,0.00,,,-99.99,,2013-12-24 11:33:00,
2013-12-24 05:43:00,12.0,10.0,27.01,SE,142,7.0,8.0,96,0.00,,,-99.99,,2013-12-24 11:43:00,
2013-12-24 05:58:00,12.0,10.0,27.00,SE,133,9.0,9.0,96,0.00,,,-99.99,,2013-12-24 11:58:00,
2013-12-24 06:08:00,12.0,12.0,27.01,SE,128,7.0,7.0,97,0.00,,,-99.99,,2013-12-24 12:08:00,
2013-12-24 06:13:00,12.0,12.0,27.00,SE,127,7.0,7.0,97,0.00,,,-99.99,,2013-12-24 12:13:00,
2013-12-24 06:23:00,12.0,12.0,27.00,SE,141,9.0,9.0,97,0.00,,,-99.99,,2013-12-24 12:23:00,
2013-12-24 06:28:00,12.0,12.0,27.00,ESE,121,9.0,9.0,97,0.00,,,-99.99,,2013-12-24 12:28:00,
2013-12-24 06:33:00,12.0,12.0,27.00,SE,134,8.0,8.0,97,0.00,,,-99.99,,2013-12-24 12:33:00,
2013-12-24 06:38:00,13.0,12.0,26.99,SSE,152,9.0,9.0,97,0.00,,,-99.99,,2013-12-24 12:38:00,
2013-12-24 06:43:00,13.0,12.0,26.99,SSE,155,9.0,10.0,97,0.00,,,-99.99,,2013-12-24 12:43:00,
2013-12-24 06:48:00,14.0,14.0,26.99,SSE,149,9.0,10.0,98,0.00,,,-99.99,,2013-12-24 12:48:00,
2013-12-24 06:53:00,14.0,14.0,27.01,SE,133,6.0,7.0,98,0.00,,,-99.99,,2013-12-24 12:53:00,
2013-12-24 07:03:00,15.0,14.0,27.01,SSE,161,5.0,6.0,97,0.00,,,-99.99,,2013-12-24 13:03:00,
2013-12-24 07:08:00,15.0,14.0,26.99,SSE,151,6.0,6.0,97,0.00,,,-99.99,,2013-12-24 13:08:00,
2013-12-24 07:18:00,16.0,16.0,27.00,North,0,0.0,0.0,97,0.00,,,-99.99,,2013-12-24 13:18:00,
2013-12-24 07:23:00,16.0,16.0,26.99,SSE,149,7.0,7.0,97,0.00,,,-99.99,,2013-12-24 13:23:00,
2013-12-24 07:28:00,16.0,16.0,26.99,SE,140,7.0,7.0,97,0.00,,,-99.99,,2013-12-24 13:28:00,
2013-12-24 07:33:00,16.0,16.0,27.01,SSE,155,5.0,6.0,97,0.00,,,-99.99,,2013-12-24 13:33:00,
2013-12-24 07:38:00,17.0,16.0,26.99,SSE,159,7.0,8.0,97,0.00,,,-99.99,,2013-12-24 13:38:00,
2013-12-24 07:43:00,17.0,16.0,26.98,SE,125,9.0,10.0,97,0.00,,,-99.99,,2013-12-24 13:43:00,
2013-12-24 07:48:00,17.0,16.0,26.98,SE,125,10.0,10.0,97,0.00,,,-99.99,,2013-12-24 13:48:00,
2013-12-24 07:53:00,16.0,16.0,26.99,SE,135,8.0,9.0,97,0.00,,,-99.99,,2013-12-24 13:53:00,
2013-12-24 07:58:00,16.0,16.0,27.00,ESE,104,7.0,8.0,97,0.00,,,-99.99,,2013-12-24 13:58:00,
2013-12-24 08:08:00,16.0,16.0,26.98,SE,135,6.0,6.0,97,0.00,,,-99.99,,2013-12-24 14:08:00,
2013-12-24 08:13:00,16.0,16.0,26.99,SE,135,5.0,6.0,97,0.00,,,-99.99,,2013-12-24 14:13:00,
2013-12-24 08:23:00,16.0,16.0,27.00,SE,141,5.0,5.0,97,0.00,,,-99.99,,2013-12-24 14:23:00,
2013-12-24 08:28:00,15.0,14.0,26.98,SSE,148,4.0,7.0,96,0.00,,,-99.99,,2013-12-24 14:28:00,
2013-12-24 08:43:00,15.0,14.0,26.98,SE,142,8.0,10.0,97,0.00,,,-99.99,,2013-12-24 14:43:00,
2013-12-24 08:48:00,15.0,14.0,27.00,SE,128,6.0,8.0,97,0.00,,,-99.99,,2013-12-24 14:48:00,
2013-12-24 08:58:00,16.0,16.0,26.99,North,0,0.0,0.0,97,0.00,,,-99.99,,2013-12-24 14:58:00,
2013-12-24 09:03:00,15.0,14.0,26.99,North,0,0.0,0.0,97,0.00,,,-99.99,,2013-12-24 15:03:00,
2013-12-24 09:18:00,15.0,14.0,26.99,SE,145,5.0,6.0,97,0.00,,,-99.99,,2013-12-24 15:18:00,
2013-12-24 09:23:00,15.0,14.0,26.99,SE,140,6.0,7.0,97,0.00,,,-99.99,,2013-12-24 15:23:00,
2013-12-24 09:38:00,16.0,16.0,26.98,SSE,165,7.0,8.0,97,0.00,,,-99.99,,2013-12-24 15:38:00,
2013-12-24 09:43:00,16.0,16.0,26.98,SSE,149,7.0,7.0,97,0.00,,,-99.99,,2013-12-24 15:43:00,
2013-12-24 09:48:00,16.0,16.0,26.97,SE,141,6.0,6.0,97,0.00,,,-99.99,,2013-12-24 15:48:00,
2013-12-24 09:58:00,17.0,16.0,26.97,SE,142,6.0,6.0,97,0.00,,,-99.99,,2013-12-24 15:58:00,
2013-12-24 10:03:00,18.0,18.0,26.97,SE,142,5.0,5.0,97,0.00,,,-99.99,,2013-12-24 16:03:00,
2013-12-24 10:08:00,19.0,18.0,26.97,SSE,149,4.0,4.0,97,0.00,,,-99.99,,2013-12-24 16:08:00,
2013-12-24 10:28:00,21.0,19.0,26.96,South,171,5.0,6.0,97,0.00,,,-99.99,,2013-12-24 16:28:00,
2013-12-24 10:33:00,21.0,19.0,26.96,South,175,6.0,7.0,97,0.00,,,-99.99,,2013-12-24 16:33:00,
2013-12-24 10:38:00,22.0,21.0,26.96,SSE,166,6.0,7.0,96,0.00,,,-99.99,,2013-12-24 16:38:00,
2013-12-24 10:53:00,23.0,21.0,26.95,SSE,168,5.0,5.0,96,0.00,,,-99.99,,2013-12-24 16:53:00,
2013-12-24 10:58:00,23.0,21.0,26.95,SSE,159,4.0,5.0,96,0.00,,,-99.99,,2013-12-24 16:58:00,
2013-12-24 11:03:00,24.0,23.0,26.95,North,0,0.0,0.0,96,0.00,,,-99.99,,2013-12-24 17:03:00,
2013-12-24 11:08:00,24.0,23.0,26.94,North,0,0.0,0.0,95,0.00,,,-99.99,,2013-12-24 17:08:00,
2013-12-24 11:23:00,24.0,23.0,26.95,South,182,5.0,6.0,95,0.00,,,-99.99,,2013-12-24 17:23:00,
2013-12-24 11:28:00,25.0,23.0,26.95,South,172,5.0,5.0,95,0.00,,,-99.99,,2013-12-24 17:28:00,
2013-12-24 11:33:00,25.0,23.0,26.96,SSE,149,4.0,4.0,95,0.00,,,-99.99,,2013-12-24 17:33:00,
2013-12-24 11:38:00,25.0,23.0,26.96,North,0,0.0,0.0,95,0.00,,,-99.99,,2013-12-24 17:38:00,
2013-12-24 11:53:00,25.0,23.0,26.95,North,0,9.0,10.0,94,0.00,,,-99.99,,2013-12-24 17:53:00,
2013-12-24 11:58:00,26.0,25.0,26.95,North,357,5.0,5.0,94,0.00,,,-99.99,,2013-12-24 17:58:00,
2013-12-24 12:03:00,26.0,25.0,26.95,North,355,5.0,6.0,94,0.00,,,-99.99,,2013-12-24 18:03:00,
2013-12-24 12:18:00,26.0,25.0,26.94,North,350,6.0,6.0,94,0.00,,,-99.99,,2013-12-24 18:18:00,
2013-12-24 12:23:00,26.0,25.0,26.94,North,351,6.0,6.0,94,0.00,,,-99.99,,2013-12-24 18:23:00,
2013-12-24 12:28:00,27.0,27.0,26.93,NNW,348,5.0,5.0,95,0.00,,,-99.99,,2013-12-24 18:28:00,
2013-12-24 12:33:00,27.0,25.0,26.93,North,355,6.0,7.0,94,0.00,,,-99.99,,2013-12-24 18:33:00,
2013-12-24 12:48:00,29.0,27.0,26.94,NNW,345,6.0,7.0,94,0.00,,,-99.99,,2013-12-24 18:48:00,
2013-12-24 12:53:00,29.0,27.0,26.94,NNW,337,6.0,6.0,94,0.00,,,-99.99,,2013-12-24 18:53:00,
2013-12-24 12:58:00,30.0,28.0,26.94,NNW,345,8.0,8.0,93,0.00,,,-99.99,,2013-12-24 18:58:00,
2013-12-24 13:08:00,30.0,28.0,26.93,NNW,344,7.0,8.0,93,0.00,,,-99.99,,2013-12-24 19:08:00,
2013-12-24 13:18:00,30.0,28.0,26.93,NNW,341,7.0,8.0,93,0.00,,,-99.99,,2013-12-24 19:18:00,
2013-12-24 13:23:00,30.0,28.0,26.93,NNW,344,9.0,10.0,92,0.00,,,-99.99,,2013-12-24 19:23:00,
2013-12-24 13:28:00,30.0,28.0,26.93,NNW,344,10.0,11.0,92,0.00,,,-99.99,,2013-12-24 19:28:00,
2013-12-24 13:43:00,31.0,28.0,26.93,NNW,340,13.0,14.0,92,0.00,,,-99.99,,2013-12-24 19:43:00,
2013-12-24 13:48:00,31.0,28.0,26.93,NNW,331,14.0,15.0,93,0.00,,,-99.99,,2013-12-24 19:48:00,
2013-12-24 13:53:00,31.0,28.0,26.93,NNW,337,11.0,12.0,93,0.00,,,-99.99,,2013-12-24 19:53:00,
2013-12-24 13:58:00,32.0,30.0,26.93,North,351,11.0,12.0,93,0.00,,,-99.99,,2013-12-24 19:58:00,
2013-12-24 14:13:00,34.0,32.0,26.93,NNW,341,13.0,15.0,93,0.00,,,-99.99,,2013-12-24 20:13:00,
2013-12-24 14:18:00,34.0,32.0,26.93,North,355,13.0,14.0,93,0.00,,,-99.99,,2013-12-24 20:18:00,
2013-12-24 14:23:00,34.0,32.0,26.93,North,0,12.0,14.0,93,0.00,,,-99.99,,2013-12-24 20:23:00,
2013-12-24 14:38:00,34.0,32.0,26.93,North,354,11.0,13.0,93,0.00,,,-99.99,,2013-12-24 20:38:00,
2013-12-24 14:43:00,35.0,34.0,26.94,NNW,347,11.0,13.0,93,0.00,,,-99.99,,2013-12-24 20:43:00,
2013-12-24 14:48:00,36.0,34.0,26.94,NNW,348,10.0,12.0,93,0.00,,,-99.99,,2013-12-24 20:48:00,
2013-12-24 14:58:00,38.0,36.0,26.96,NNW,348,10.0,12.0,94,0.00,,,-99.99,,2013-12-24 20:58:00,
2013-12-24 15:03:00,38.0,36.0,26.96,NNW,337,8.0,11.0,94,0.00,,,-99.99,,2013-12-24 21:03:00,
2013-12-24 15:08:00,39.0,37.0,26.97,NNW,336,9.0,12.0,94,0.00,,,-99.99,,2013-12-24 21:08:00,
2013-12-24 15:13:00,39.0,37.0,26.97,NNW,334,13.0,17.0,95,0.00,,,-99.99,,2013-12-24 21:13:00,
2013-12-24 15:18:00,40.0,39.0,26.97,NNW,340,14.0,17.0,96,0.00,,,-99.99,,2013-12-24 21:18:00,
2013-12-24 15:33:00,40.0,39.0,26.98,NNW,343,15.0,18.0,96,0.00,,,-99.99,,2013-12-24 21:33:00,
2013-12-24 15:38:00,39.0,37.0,26.98,NNW,345,14.0,19.0,96,0.00,,,-99.99,,2013-12-24 21:38:00,
2013-12-24 15:43:00,40.0,39.0,26.98,NW,326,17.0,20.0,96,0.00,,,-99.99,,2013-12-24 21:43:00,
2013-12-24 15:48:00,40.0,39.0,26.98,NNW,336,17.0,21.0,96,0.00,,,-99.99,,2013-12-24 21:48:00,
2013-12-24 15:53:00,40.0,39.0,26.99,NNW,336,18.0,20.0,96,0.00,,,-99.99,,2013-12-24 21:53:00,
2013-12-24 15:58:00,40.0,39.0,26.99,NNW,337,17.0,20.0,96,0.00,,,-99.99,,2013-12-24 21:58:00,
2013-12-24 16:03:00,39.0,37.0,27.00,NNW,329,17.0,20.0,96,0.00,,,-99.99,,2013-12-24 22:03:00,
2013-12-24 16:08:00,39.0,37.0,27.00,NW,324,17.0,20.0,96,0.00,,,-99.99,,2013-12-24 22:08:00,
2013-12-24 16:13:00,39.0,37.0,27.01,NW,317,19.0,22.0,96,0.00,,,-99.99,,2013-12-24 22:13:00,
2013-12-24 16:18:00,39.0,37.0,27.01,NW,319,21.0,25.0,96,0.00,,,-99.99,,2013-12-24 22:18:00,
2013-12-24 16:28:00,39.0,37.0,27.02,NW,321,21.0,25.0,95,0.00,,,-99.99,,2013-12-24 22:28:00,
2013-12-24 16:33:00,39.0,37.0,27.02,NNW,331,21.0,24.0,95,0.00,,,-99.99,,2013-12-24 22:33:00,
2013-12-24 16:38:00,39.0,37.0,27.03,NW,309,23.0,26.0,95,0.00,,,-99.99,,2013-12-24 22:38:00,
2013-12-24 16:58:00,38.0,37.0,27.04,NW,317,19.0,23.0,96,0.00,,,-99.99,,2013-12-24 22:58:00,
2013-12-24 17:03:00,38.0,37.0,27.04,NW,316,19.0,22.0,96,0.00,,,-99.99,,2013-12-24 23:03:00,
2013-12-24 17:08:00,38.0,37.0,27.04,NW,321,18.0,21.0,96,0.00,,,-99.99,,2013-12-24 23:08:00,
2013-12-24 17:23:00,38.0,37.0,27.04,NW,321,17.0,20.0,96,0.00,,,-99.99,,2013-12-24 23:23:00,
2013-12-24 17:28:00,38.0,37.0,27.04,NNW,336,16.0,19.0,96,0.00,,,-99.99,,2013-12-24 23:28:00,
2013-12-24 17:33:00,37.0,36.0,27.04,NNW,331,16.0,18.0,96,0.00,,,-99.99,,2013-12-24 23:33:00,
2013-12-24 17:48:00,37.0,36.0,27.06,NNW,338,17.0,20.0,95,0.00,,,-99.99,,2013-12-24 23:48:00,
2013-12-24 17:53:00,37.0,36.0,27.06,NW,326,17.0,19.0,95,0.00,,,-99.99,,2013-12-24 23:53:00,
2013-12-24 17:58:00,37.0,36.0,27.07,NNW,327,18.0,20.0,95,0.00,,,-99.99,,2013-12-24 23:58:00,
2013-12-24 18:03:00,37.0,36.0,27.08,NNW,330,19.0,22.0,95,0.00,,,-99.99,,2013-12-25 00:03:00,
2013-12-24 18:18:00,37.0,36.0,27.09,NNW,327,17.0,21.0,95,0.00,,,-99.99,,2013-12-25 00:18:00,
2013-12-24 18:23:00,37.0,36.0,27.09,NNW,334,16.0,19.0,95,0.00,,,-99.99,,2013-12-25 00:23:00,
2013-12-24 18:28:00,37.0,36.0,27.10,NNW,330,16.0,20.0,95,0.00,,,-99.99,,2013-12-25 00:28:00,
2013-12-24 18:33:00,37.0,36.0,27.09,NNW,331,18.0,21.0,95,0.00,,,-99.99,,2013-12-25 00:33:00,
2013-12-24 18:38:00,37.0,36.0,27.09,NW,324,18.0,20.0,95,0.00,,,-99.99,,2013-12-25 00:38:00,
2013-12-24 18:43:00,37.0,36.0,27.09,NW,320,17.0,20.0,95,0.00,,,-99.99,,2013-12-25 00:43:00,
2013-12-24 18:48:00,37.0,36.0,27.09,NW,320,19.0,22.0,95,0.00,,,-99.99,,2013-12-25 00:48:00,
2013-12-24 18:53:00,37.0,36.0,27.09,NNW,337,20.0,23.0,95,0.00,,,-99.99,,2013-12-25 00:53:00,
2013-12-24 19:08:00,37.0,36.0,27.11,NW,312,18.0,21.0,95,0.00,,,-99.99,,2013-12-25 01:08:00,
2013-12-24 19:13:00,37.0,36.0,27.12,NW,326,18.0,20.0,96,0.00,,,-99.99,,2013-12-25 01:13:00,
2013-12-24 19:18:00,37.0,36.0,27.12,NNW,329,16.0,19.0,95,0.00,,,-99.99,,2013-12-25 01:18:00,
2013-12-24 19:28:00,37.0,36.0,27.13,NNW,329,17.0,19.0,96,0.00,,,-99.99,,2013-12-25 01:28:00,
2013-12-24 19:33:00,37.0,36.0,27.13,NW,326,18.0,20.0,96,0.00,,,-99.99,,2013-12-25 01:33:00,
2013-12-24 19:43:00,36.0,36.0,27.14,NNW,336,15.0,18.0,95,0.00,,,-99.99,,2013-12-25 01:43:00,
2013-12-24 19:58:00,36.0,36.0,27.13,NNW,337,17.0,19.0,96,0.00,,,-99.99,,2013-12-25 01:58:00,
2013-12-24 20:03:00,36.0,36.0,27.13,NNW,341,17.0,18.0,96,0.00,,,-99.99,,2013-12-25 02:03:00,
2013-12-24 20:08:00,36.0,36.0,27.13,NNW,341,15.0,17.0,96,0.00,,,-99.99,,2013-12-25 02:08:00,
2013-12-24 20:23:00,36.0,36.0,27.13,NNW,348,17.0,20.0,96,0.00,,,-99.99,,2013-12-25 02:23:00,
2013-12-24 20:28:00,35.0,34.0,27.13,NNW,344,17.0,20.0,96,0.00,,,-99.99,,2013-12-25 02:28:00,
2013-12-24 20:33:00,35.0,34.0,27.13,NNW,338,16.0,18.0,96,0.00,,,-99.99,,2013-12-25 02:33:00,
2013-12-24 20:38:00,35.0,34.0,27.14,NNW,344,17.0,21.0,95,0.00,,,-99.99,,2013-12-25 02:38:00,
2013-12-24 20:53:00,35.0,34.0,27.15,NNW,333,14.0,16.0,96,0.00,,,-99.99,,2013-12-25 02:53:00,
2013-12-24 20:58:00,34.0,34.0,27.15,NNW,338,14.0,16.0,96,0.00,,,-99.99,,2013-12-25 02:58:00,
2013-12-24 21:13:00,34.0,34.0,27.16,NNW,333,13.0,16.0,96,0.00,,,-99.99,,2013-12-25 03:13:00,
2013-12-24 21:18:00,34.0,34.0,27.17,NNW,330,13.0,15.0,96,0.00,,,-99.99,,2013-12-25 03:18:00,
2013-12-24 21:23:00,33.0,32.0,27.17,NW,323,12.0,14.0,96,0.00,,,-99.99,,2013-12-25 03:23:00,
2013-12-24 21:28:00,33.0,32.0,27.17,NNW,330,12.0,14.0,96,0.00,,,-99.99,,2013-12-25 03:28:00,
2013-12-24 21:43:00,32.0,32.0,27.18,NNW,337,10.0,13.0,97,0.00,,,-99.99,,2013-12-25 03:43:00,
2013-12-24 21:48:00,32.0,32.0,27.18,NNW,333,8.0,10.0,97,0.00,,,-99.99,,2013-12-25 03:48:00,
2013-12-24 21:53:00,32.0,32.0,27.18,NNW,336,10.0,11.0,97,0.00,,,-99.99,,2013-12-25 03:53:00,
2013-12-24 22:08:00,32.0,32.0,27.18,NNW,329,10.0,13.0,97,0.00,,,-99.99,,2013-12-25 04:08:00,
2013-12-24 22:13:00,32.0,32.0,27.18,NW,316,11.0,13.0,97,0.00,,,-99.99,,2013-12-25 04:13:00,
2013-12-24 22:18:00,32.0,32.0,27.18,NW,317,12.0,14.0,97,0.00,,,-99.99,,2013-12-25 04:18:00,
2013-12-24 22:28:00,31.0,30.0,27.19,NNW,333,10.0,12.0,97,0.00,,,-99.99,,2013-12-25 04:28:00,
2013-12-24 22:33:00,31.0,30.0,27.19,NW,320,9.0,11.0,97,0.00,,,-99.99,,2013-12-25 04:33:00,
2013-12-24 22:38:00,31.0,30.0,27.19,NW,306,9.0,10.0,97,0.00,,,-99.99,,2013-12-25 04:38:00,
2013-12-24 22:53:00,30.0,28.0,27.19,NW,306,8.0,9.0,97,0.00,,,-99.99,,2013-12-25 04:53:00,
2013-12-24 22:58:00,30.0,28.0,27.20,NW,314,9.0,10.0,97,0.00,,,-99.99,,2013-12-25 04:58:00,
2013-12-24 23:03:00,30.0,28.0,27.20,NW,314,9.0,10.0,97,0.00,,,-99.99,,2013-12-25 05:03:00,
2013-12-24 23:18:00,29.0,28.0,27.20,NW,309,10.0,11.0,97,0.00,,,-99.99,,2013-12-25 05:18:00,
2013-12-24 23:23:00,29.0,28.0,27.20,NW,310,11.0,11.0,97,0.00,,,-99.99,,2013-12-25 05:23:00,
2013-12-24 23:28:00,28.0,27.0,27.20,NW,309,10.0,11.0,97,0.00,,,-99.99,,2013-12-25 05:28:00,
2013-12-24 23:43:00,28.0,28.0,27.20,NW,306,9.0,10.0,98,0.00,,,-99.99,,2013-12-25 05:43:00,
2013-12-24 23:48:00,28.0,28.0,27.20,WNW,298,9.0,9.0,98,0.00,,,-99.99,,2013-12-25 05:48:00,
2013-12-24 23:53:00,28.0,28.0,27.20,NW,305,9.0,10.0,98,0.00,,,-99.99,,2013-12-25 05:53:00,
2013-12-24 23:58:00,28.0,28.0,27.20,NW,310,9.0,10.0,98,0.00,,,-99.99,,2013-12-25 05:58:00,